Location: Brno
(49.2000°N, 16.6330°E)
Time: 15:27:36
(UTC+01:00)

Meteor 1-4 Rocket - Visible Passes

Search period start: 08 February 2016 00:00
Search period end: 18 February 2016 00:00
Orbit: 457 x 516 km, 81.2° (Epoch: 07 February)

Date Brightness Start Highest point End Pass type
(mag) Time Alt. Az. Time Alt. Az. Time Alt. Az.
08 Feb 6.1 05:46:41 10° ESE 05:48:03 12° E 05:49:25 10° ENE visible
08 Feb 5.9 18:42:17 10° NW 18:44:44 17° W 18:47:11 10° SW visible
09 Feb 5.3 18:17:47 10° NW 18:20:50 24° W 18:23:55 10° SW visible
10 Feb 3.1 06:31:16 10° S 06:34:44 63° E 06:38:18 10° NNE visible
10 Feb 4.6 17:53:27 10° NNW 17:56:54 35° W 18:00:22 10° SSW visible
11 Feb 4.1 06:07:25 10° SSE 06:10:45 40° E 06:14:09 10° NNE visible
12 Feb 4.9 05:43:46 10° SSE 05:46:47 27° E 05:49:52 10° NNE visible
13 Feb 5.6 05:20:20 10° SE 05:22:52 19° E 05:25:26 10° NE visible
13 Feb 6.4 18:18:28 10° WNW 18:19:34 11° W 18:20:41 10° WSW visible
14 Feb 6.1 04:57:18 10° ESE 04:58:58 13° E 05:00:39 10° ENE visible
14 Feb 2.7 06:30:19 10° SSW 06:33:46 49° WNW 06:37:18 10° N visible
14 Feb 5.9 17:53:18 10° NW 17:55:41 16° W 17:58:04 10° SW visible
15 Feb 2.4 06:06:07 10° SSW 06:09:40 77° WNW 06:13:19 10° N visible
16 Feb 2.9 05:42:05 10° S 05:45:36 68° E 05:49:14 10° NNE visible
17 Feb 3.8 05:18:10 10° SSE 05:21:34 43° E 05:25:04 10° NNE visible
